Perry, IA

9:30 PM CDT on April 27, 2017 (GMT -0500)
Perry Municipal

Weather History for KPRO - December, 2013

Change the Weather History Date:

Tuesday, December 17, 2013

  Actual Average Record
Temperature  
Mean Temperature 26 °F -  
Max Temperature 36 °F 31 °F 55 °F (1962)
Min Temperature 16 °F 14 °F -10 °F (1951)
Degree Days  
Heating Degree Days 39    
Moisture  
Dew Point 19 °F    
Average Humidity 72    
Maximum Humidity 92    
Minimum Humidity 47    
Precipitation  
Precipitation 0.00 in - - ()
Sea Level Pressure  
Sea Level Pressure 30.15 in    
Wind  
Wind Speed 11 mph (West)    
Max Wind Speed 24 mph    
Max Gust Speed 34 mph    
Visibility 10 miles    
Events      
Averages and records for this station are not official NWS values.
T = Trace of Precipitation, MM = Missing Value Source: NWS Daily Summary

Daily Weather History Graph

Daily Weather History Graph

Search for Another Location

Airport or City:

Trip Planner

Search our weather history database for the weather conditions in past years. The results will help you decide how hot, cold, wet, or windy it might be!

Date:

Astronomy

Dec. 17, 2013 Rise Set
Actual Time 7:38 AM CST 4:47 PM CST
Civil Twilight 7:06 AM CST 5:18 PM CST
Nautical Twilight 6:31 AM CST 5:54 PM CST
Astronomical Twilight 5:57 AM CST 6:27 PM CST
Moon 5:28 PM CST (12/17) 7:34 AM CST (12/17)
Length of Visible Light 10h 11m
Length of Day
9h 08m
Full, 100% of the Moon is Illuminated
Dec 17
Full
Dec 25
Last Quarter
Jan 1
New
Jan 7
First Quarter
Jan 15
Full

Hourly Weather History & Observations

Time (CST) Temp. Windchill Dew Point Humidity Pressure Visibility Wind Dir Wind Speed Gust Speed Precip Events Conditions
12:15 AM 26.2 °F 17.8 °F 22.5 °F 86% 30.10 in 10.0 mi West 8.1 mph - N/A   Scattered Clouds
12:35 AM 25.2 °F 17.3 °F 21.2 °F 85% 30.09 in 10.0 mi WSW 6.9 mph - N/A   Clear
12:55 AM 23.4 °F 15.2 °F 20.1 °F 87% 30.09 in 10.0 mi WSW 6.9 mph - N/A   Clear
1:15 AM 23.0 °F 14.7 °F 20.3 °F 89% 30.08 in 10.0 mi WSW 6.9 mph - N/A   Clear
1:35 AM 23.4 °F 13.5 °F 20.8 °F 90% 30.09 in 10.0 mi WSW 9.2 mph - N/A   Clear
1:55 AM 21.4 °F 11.9 °F 18.5 °F 89% 30.09 in 10.0 mi WSW 8.1 mph - N/A   Clear
2:15 AM 22.6 °F 11.9 °F 20.1 °F 90% 30.09 in 10.0 mi West 10.4 mph - N/A   Clear
2:35 AM 21.0 °F 9.9 °F 19.0 °F 92% 30.09 in 10.0 mi WSW 10.4 mph - N/A   Clear
2:55 AM 22.1 °F 12.0 °F 19.4 °F 89% 30.09 in 10.0 mi WSW 9.2 mph - N/A   Clear
3:15 AM 21.6 °F 10.6 °F 19.2 °F 91% 30.08 in 10.0 mi WSW 10.4 mph - N/A   Clear
3:35 AM 25.3 °F 14.7 °F 22.6 °F 89% 30.07 in 10.0 mi WSW 11.5 mph - N/A   Clear
3:55 AM 25.5 °F 15.5 °F 22.1 °F 87% 30.07 in 10.0 mi WSW 10.4 mph - N/A   Clear
4:15 AM 26.1 °F 15.0 °F 22.5 °F 86% 30.07 in 10.0 mi West 12.7 mph - N/A   Clear
4:35 AM 26.4 °F 16.0 °F 22.5 °F 85% 30.07 in 10.0 mi West 11.5 mph - N/A   Clear
4:55 AM 25.2 °F 14.4 °F 21.6 °F 86% 30.07 in 10.0 mi West 11.5 mph - N/A   Clear
5:15 AM 25.7 °F 15.1 °F 22.1 °F 86% 30.08 in 10.0 mi West 11.5 mph - N/A   Clear
5:35 AM 25.7 °F 15.7 °F 21.9 °F 86% 30.08 in 10.0 mi West 10.4 mph - N/A   Clear
5:55 AM 25.7 °F 15.1 °F 21.9 °F 86% 30.08 in 10.0 mi West 11.5 mph - N/A   Scattered Clouds
6:15 AM 25.7 °F 14.0 °F 21.9 °F 86% 30.09 in 10.0 mi West 13.8 mph - N/A   Clear
6:35 AM 25.7 °F 14.6 °F 21.9 °F 86% 30.09 in 10.0 mi West 12.7 mph - N/A   Scattered Clouds
6:55 AM 26.4 °F 15.0 °F 22.5 °F 85% 30.09 in 10.0 mi West 13.8 mph - N/A   Mostly Cloudy
7:15 AM 28.6 °F 17.2 °F 23.9 °F 83% 30.11 in 10.0 mi WNW 15.0 mph - N/A   Mostly Cloudy
7:35 AM 29.5 °F 18.0 °F 24.4 °F 81% 30.12 in 10.0 mi WNW 16.1 mph - N/A   Scattered Clouds
7:55 AM 30.0 °F 19.1 °F 24.8 °F 81% 30.11 in 10.0 mi WNW 15.0 mph - N/A   Mostly Cloudy
8:15 AM 30.2 °F 20.8 °F 25.2 °F 82% 30.13 in 10.0 mi WNW 11.5 mph - N/A   Overcast
8:35 AM 30.7 °F 20.9 °F 25.5 °F 81% 30.14 in 10.0 mi WNW 12.7 mph - N/A   Overcast
8:55 AM 31.3 °F 21.1 °F 25.7 °F 80% 30.15 in 10.0 mi WNW 13.8 mph 19.6 mph N/A   Overcast
9:15 AM 32.0 °F 21.2 °F 26.1 °F 79% 30.15 in 10.0 mi WNW 16.1 mph - N/A   Mostly Cloudy
9:35 AM 32.7 °F 23.4 °F 25.7 °F 75% 30.16 in 10.0 mi NW 12.7 mph 20.7 mph N/A   Scattered Clouds
9:55 AM 34.7 °F 25.9 °F 26.1 °F 71% 30.17 in 10.0 mi NW 12.7 mph 23.0 mph N/A   Scattered Clouds
10:15 AM 35.4 °F 26.0 °F 25.5 °F 67% 30.18 in 10.0 mi NW 15.0 mph 21.9 mph N/A   Clear
10:35 AM 36.0 °F 25.6 °F 23.2 °F 60% 30.18 in 10.0 mi NW 18.4 mph 24.2 mph N/A   Clear
10:55 AM 36.1 °F 25.0 °F 20.7 °F 53% 30.18 in 10.0 mi NW 21.9 mph 28.8 mph N/A   Clear
11:15 AM 36.1 °F 26.5 °F 20.5 °F 53% 30.18 in 10.0 mi NW 16.1 mph - N/A   Clear
11:35 AM 36.1 °F 25.2 °F 19.4 °F 51% 30.18 in 10.0 mi NW 20.7 mph 31.1 mph N/A   Clear
11:55 AM 36.7 °F 27.2 °F 20.7 °F 52% 30.18 in 10.0 mi NW 16.1 mph 26.5 mph N/A   Clear
12:15 PM 36.7 °F 25.7 °F 19.2 °F 49% 30.18 in 10.0 mi NW 21.9 mph 27.6 mph N/A   Clear
12:35 PM 36.7 °F 27.2 °F 19.8 °F 50% 30.18 in 10.0 mi NW 16.1 mph 25.3 mph N/A   Clear
12:55 PM 36.5 °F 25.2 °F 19.0 °F 49% 30.17 in 10.0 mi WNW 23.0 mph 31.1 mph N/A   Clear
1:15 PM 36.3 °F 24.7 °F 18.7 °F 49% 30.17 in 10.0 mi WNW 24.2 mph 34.5 mph N/A   Clear
1:35 PM 36.0 °F 25.0 °F 18.0 °F 48% 30.17 in 10.0 mi WNW 20.7 mph 29.9 mph N/A   Clear
1:55 PM 35.8 °F 24.5 °F 17.2 °F 47% 30.18 in 10.0 mi NW 21.9 mph 25.3 mph N/A   Clear
2:15 PM 35.6 °F 24.8 °F 16.9 °F 47% 30.18 in 10.0 mi WNW 19.6 mph 28.8 mph N/A   Clear
2:35 PM 35.6 °F 25.9 °F 17.6 °F 48% 30.18 in 10.0 mi WNW 16.1 mph 23.0 mph N/A   Clear
2:55 PM 35.1 °F 24.5 °F 17.1 °F 48% 30.18 in 10.0 mi NW 18.4 mph 27.6 mph N/A   Clear
3:15 PM 35.1 °F 25.9 °F 18.3 °F 51% 30.18 in 10.0 mi WNW 13.8 mph - N/A   Clear
3:35 PM 34.5 °F 24.5 °F 16.7 °F 48% 30.19 in 10.0 mi NW 16.1 mph 20.7 mph N/A   Clear
3:55 PM 34.3 °F 25.5 °F 18.5 °F 52% 30.20 in 10.0 mi NW 12.7 mph - N/A   Clear
4:15 PM 33.3 °F 23.2 °F 15.8 °F 49% 30.20 in 10.0 mi NW 15.0 mph 23.0 mph N/A   Clear
4:35 PM 32.2 °F 22.7 °F 15.8 °F 51% 30.20 in 10.0 mi WNW 12.7 mph - N/A   Clear
4:55 PM 31.3 °F 22.7 °F 16.5 °F 54% 30.20 in 10.0 mi WNW 10.4 mph - N/A   Clear
5:15 PM 30.0 °F 22.4 °F 17.2 °F 59% 30.20 in 10.0 mi NW 8.1 mph - N/A   Clear
5:35 PM 28.2 °F 23.1 °F 17.6 °F 64% 30.19 in 10.0 mi WNW 4.6 mph - N/A   Clear
5:55 PM 27.1 °F 19.7 °F 17.2 °F 66% 30.19 in 10.0 mi WNW 6.9 mph - N/A   Clear
6:15 PM 26.1 °F 18.4 °F 16.7 °F 68% 30.19 in 10.0 mi West 6.9 mph - N/A   Clear
6:35 PM 23.2 °F 14.1 °F 16.3 °F 75% 30.19 in 10.0 mi West 8.1 mph - N/A   Clear
6:55 PM 21.4 °F 11.9 °F 15.6 °F 78% 30.20 in 10.0 mi West 8.1 mph - N/A   Clear
7:15 PM 23.5 °F 13.0 °F 16.2 °F 73% 30.20 in 10.0 mi West 10.4 mph - N/A   Clear
7:35 PM 22.8 °F 12.9 °F 15.4 °F 73% 30.20 in 10.0 mi West 9.2 mph - N/A   Clear
7:55 PM 21.2 °F 11.7 °F 14.9 °F 77% 30.20 in 10.0 mi WSW 8.1 mph - N/A   Clear
8:15 PM 19.9 °F 8.6 °F 14.2 °F 78% 30.20 in 10.0 mi West 10.4 mph - N/A   Clear
8:35 PM 19.2 °F 8.4 °F 13.1 °F 77% 30.19 in 10.0 mi WSW 9.2 mph - N/A   Clear
8:55 PM 19.2 °F 9.3 °F 13.3 °F 78% 30.19 in 10.0 mi WSW 8.1 mph - N/A   Clear
9:15 PM 18.5 °F 8.4 °F 12.6 °F 78% 30.19 in 10.0 mi West 8.1 mph - N/A   Clear
9:35 PM 17.6 °F 10.7 °F 11.8 °F 78% 30.19 in 10.0 mi West 4.6 mph - N/A   Clear
9:55 PM 17.2 °F - 11.8 °F 79% 30.18 in 10.0 mi Calm Calm - N/A   Clear
10:15 PM 19.4 °F - 13.1 °F 76% 30.18 in 10.0 mi Calm Calm - N/A   Clear
10:35 PM 17.8 °F 12.5 °F 12.0 °F 78% 30.18 in 10.0 mi South 3.5 mph - N/A   Clear
10:55 PM 16.2 °F 9.0 °F 11.8 °F 83% 30.17 in 10.0 mi South 4.6 mph - N/A   Clear
11:15 PM 16.5 °F 8.1 °F 11.3 °F 80% 30.16 in 10.0 mi SSW 5.8 mph - N/A   Clear
11:35 PM 16.5 °F 8.1 °F 11.1 °F 79% 30.16 in 10.0 mi South 5.8 mph - N/A   Clear
11:55 PM 16.7 °F 9.6 °F 11.3 °F 79% 30.15 in 10.0 mi SSE 4.6 mph - N/A   Clear